Location: Caltech
(34.1382°N, 118.1253°W)
Time: 22:31:00
(UTC-07:00)

Iridium 49 - Visible Passes

Search period start: 31 October 2014 00:00
Search period end: 09 November 2014 23:00
Orbit: 776 x 779 km, 86.4° (Epoch: 31 October)

Date Brightness Start Highest point End Pass type
(mag) Time Alt. Az. Time Alt. Az. Time Alt. Az.
31 Oct 6.0 05:45:09 10° N 05:50:22 89° W 05:55:34 10° S visible
31 Oct 7.7 18:38:17 10° SSW 18:43:05 37° W 18:47:54 10° NNW visible
01 Nov 7.0 05:11:48 10° NNE 05:16:49 46° E 05:21:47 10° SSE visible
02 Nov 8.2 03:38:56 10° NNE 03:43:08 24° E 03:47:17 10° SE visible
02 Nov 6.7 05:19:17 10° NNW 05:23:47 30° W 05:28:17 10° SW visible
02 Nov 9.1 18:14:40 10° WSW 18:17:03 13° WNW 18:19:27 10° NW visible
03 Nov 9.0 03:07:12 10° NE 03:09:19 12° ENE 03:11:26 10° E visible
03 Nov 6.0 04:45:17 10° N 04:50:24 60° W 04:55:30 10° SSW visible
03 Nov 8.5 17:38:59 10° SW 17:43:15 25° W 17:47:32 10° NNW visible
04 Nov 6.2 04:11:43 10° N 04:16:55 70° E 04:22:05 10° S visible
05 Nov 7.4 03:38:32 10° NNE 03:43:18 36° E 03:48:03 10° SSE visible
05 Nov 7.2 05:19:55 10° NW 05:23:42 21° W 05:27:29 10° SW visible
06 Nov 8.4 03:05:57 10° NE 03:09:34 19° E 03:13:10 10° ESE visible
06 Nov 6.4 04:45:34 10° NNW 04:50:24 40° W 04:55:12 10° SSW visible
06 Nov 8.9 17:40:06 10° WSW 17:43:28 17° WNW 17:46:50 10° NW visible
07 Nov 5.8 04:16:00 59° NNW 04:16:58 78° W 04:22:09 10° S visible
08 Nov 7.2 03:45:18 35° SE 03:45:18 35° SE 03:48:30 10° SSE visible
08 Nov 7.9 05:25:56 11° WSW 05:25:56 11° WSW 05:26:07 10° WSW visible
09 Nov 8.7 03:13:43 12° SE 03:13:43 12° SE 03:14:10 10° SE visible
09 Nov 8.1 04:54:18 11° SW 04:54:18 11° SW 04:54:38 10° SW visible
09 Nov 9.2 17:42:11 10° W 17:43:43 11° WNW 17:45:16 10° WNW visible
